Time,TemperatureF,DewpointF,PressureIn,WindDirection,WindDirectionDegrees,WindSpeedMPH,WindSpeedGustMPH,Humidity,HourlyPrecipIn,Conditions,Clouds,dailyrainin,SoftwareType,DateUTC
2013-02-24 00:12:00,42.4,39.0,30.23,SSE,165,5.0,7.0,88,0.00,,,0.00,weatherlink.com 1.10,2013-02-24 08:12:00,
2013-02-24 00:27:00,42.3,38.0,30.23,SSW,206,6.0,10.0,85,0.00,,,0.00,weatherlink.com 1.10,2013-02-24 08:27:00,
2013-02-24 00:42:00,42.2,38.0,30.24,SSW,198,6.0,7.0,84,0.00,,,0.00,weatherlink.com 1.10,2013-02-24 08:42:00,
2013-02-24 00:57:00,42.4,38.0,30.24,SW,221,9.0,11.0,85,0.00,,,0.00,weatherlink.com 1.10,2013-02-24 08:57:00,
2013-02-24 01:12:00,42.2,38.0,30.23,SW,216,9.0,13.0,86,0.00,,,0.00,weatherlink.com 1.10,2013-02-24 09:12:00,
2013-02-24 01:27:00,42.4,39.0,30.24,South,190,9.0,11.0,86,0.00,,,0.00,weatherlink.com 1.10,2013-02-24 09:27:00,
2013-02-24 01:42:00,42.9,37.0,30.24,SSW,206,13.0,18.0,80,0.00,,,0.00,weatherlink.com 1.10,2013-02-24 09:42:00,
2013-02-24 01:57:00,43.1,37.0,30.25,SSW,200,17.0,18.0,80,0.01,,,0.01,weatherlink.com 1.10,2013-02-24 09:57:00,
2013-02-24 02:27:00,40.5,38.0,30.26,SSE,168,18.0,26.0,92,0.01,,,0.01,weatherlink.com 1.10,2013-02-24 10:27:00,
2013-02-24 02:42:00,40.2,38.0,30.26,South,169,18.0,23.0,92,0.01,,,0.01,weatherlink.com 1.10,2013-02-24 10:42:00,
2013-02-24 02:57:00,40.5,38.0,30.25,South,175,17.0,22.0,92,0.00,,,0.01,weatherlink.com 1.10,2013-02-24 10:57:00,
2013-02-24 03:12:00,40.8,38.0,30.25,South,185,14.0,25.0,91,0.00,,,0.01,weatherlink.com 1.10,2013-02-24 11:12:00,
2013-02-24 03:27:00,40.7,38.0,30.25,South,178,18.0,21.0,91,0.00,,,0.01,weatherlink.com 1.10,2013-02-24 11:27:00,
2013-02-24 03:42:00,40.7,39.0,30.25,South,180,18.0,21.0,92,0.00,,,0.01,weatherlink.com 1.10,2013-02-24 11:42:00,
2013-02-24 03:57:00,40.7,39.0,30.25,South,182,14.0,21.0,92,0.00,,,0.01,weatherlink.com 1.10,2013-02-24 11:57:00,
2013-02-24 04:12:00,40.5,38.0,30.25,SSE,165,14.0,20.0,92,0.00,,,0.01,weatherlink.com 1.10,2013-02-24 12:12:00,
2013-02-24 04:27:00,40.4,38.0,30.25,South,179,16.0,19.0,91,0.00,,,0.01,weatherlink.com 1.10,2013-02-24 12:27:00,
2013-02-24 04:42:00,40.7,38.0,30.24,SSE,168,15.0,19.0,89,0.00,,,0.01,weatherlink.com 1.10,2013-02-24 12:42:00,
2013-02-24 04:57:00,40.9,38.0,30.23,SSE,155,9.0,15.0,88,0.00,,,0.01,weatherlink.com 1.10,2013-02-24 12:57:00,
2013-02-24 05:13:00,41.1,38.0,30.23,South,177,10.0,17.0,87,0.00,,,0.01,weatherlink.com 1.10,2013-02-24 13:13:00,
2013-02-24 05:28:00,40.2,38.0,30.23,SE,144,12.0,14.0,90,0.00,,,0.01,weatherlink.com 1.10,2013-02-24 13:28:00,
2013-02-24 05:43:00,40.1,38.0,30.23,SE,146,13.0,15.0,90,0.00,,,0.01,weatherlink.com 1.10,2013-02-24 13:43:00,
2013-02-24 05:58:00,40.4,38.0,30.23,SE,140,8.0,14.0,89,0.00,,,0.01,weatherlink.com 1.10,2013-02-24 13:58:00,
2013-02-24 06:13:00,41.1,38.0,30.22,SSE,149,13.0,18.0,88,0.00,,,0.01,weatherlink.com 1.10,2013-02-24 14:13:00,
2013-02-24 06:28:00,41.1,38.0,30.23,SSE,156,11.0,17.0,88,0.00,,,0.00,weatherlink.com 1.10,2013-02-24 14:28:00,
2013-02-24 06:43:00,41.3,38.0,30.22,SSE,160,14.0,15.0,88,0.00,,,0.00,weatherlink.com 1.10,2013-02-24 14:43:00,
2013-02-24 06:58:00,41.5,38.0,30.22,SSE,153,16.0,20.0,87,0.00,,,0.00,weatherlink.com 1.10,2013-02-24 14:58:00,
2013-02-24 07:13:00,41.3,38.0,30.21,SSE,148,13.0,20.0,87,0.00,,,0.00,weatherlink.com 1.10,2013-02-24 15:13:00,
2013-02-24 07:28:00,41.2,38.0,30.21,SSE,149,14.0,19.0,87,0.00,,,0.00,weatherlink.com 1.10,2013-02-24 15:28:00,
2013-02-24 07:43:00,41.0,37.0,30.20,SSE,148,10.0,15.0,87,0.00,,,0.00,weatherlink.com 1.10,2013-02-24 15:43:00,
2013-02-24 07:59:00,41.5,38.0,30.20,SSE,163,13.0,17.0,87,0.00,,,0.00,weatherlink.com 1.10,2013-02-24 15:59:00,
2013-02-24 08:13:00,41.9,38.0,30.20,South,175,18.0,24.0,86,0.00,,,0.00,weatherlink.com 1.10,2013-02-24 16:13:00,
2013-02-24 08:28:00,42.0,38.0,30.20,SSE,164,15.0,24.0,85,0.00,,,0.00,weatherlink.com 1.10,2013-02-24 16:28:00,
2013-02-24 08:43:00,42.3,38.0,30.20,SSE,165,19.0,25.0,84,0.00,,,0.00,weatherlink.com 1.10,2013-02-24 16:43:00,
2013-02-24 08:58:00,42.4,38.0,30.19,SSE,167,18.0,24.0,83,0.00,,,0.00,weatherlink.com 1.10,2013-02-24 16:58:00,
2013-02-24 09:14:00,42.6,38.0,30.19,SSE,150,23.0,24.0,82,0.00,,,0.00,weatherlink.com 1.10,2013-02-24 17:14:00,
2013-02-24 09:28:00,42.4,38.0,30.18,SE,145,17.0,22.0,84,0.00,,,0.00,weatherlink.com 1.10,2013-02-24 17:28:00,
2013-02-24 09:43:00,43.2,38.0,30.18,SSE,168,22.0,24.0,82,0.00,,,0.00,weatherlink.com 1.10,2013-02-24 17:43:00,
2013-02-24 09:58:00,43.4,38.0,30.18,SSE,160,18.0,29.0,82,0.00,,,0.00,weatherlink.com 1.10,2013-02-24 17:58:00,
2013-02-24 10:13:00,43.6,38.0,30.18,South,175,22.0,30.0,81,0.00,,,0.00,weatherlink.com 1.10,2013-02-24 18:13:00,
2013-02-24 10:28:00,43.5,38.0,30.17,South,175,22.0,36.0,81,0.00,,,0.00,weatherlink.com 1.10,2013-02-24 18:28:00,
2013-02-24 10:43:00,43.7,38.0,30.17,South,171,25.0,30.0,80,0.00,,,0.00,weatherlink.com 1.10,2013-02-24 18:43:00,
2013-02-24 10:58:00,44.2,38.0,30.16,SSE,161,24.0,29.0,80,0.00,,,0.00,weatherlink.com 1.10,2013-02-24 18:58:00,
2013-02-24 11:13:00,44.3,39.0,30.15,SSE,164,20.0,28.0,80,0.00,,,0.00,weatherlink.com 1.10,2013-02-24 19:13:00,
2013-02-24 11:28:00,44.4,38.0,30.14,SSE,159,28.0,28.0,78,0.00,,,0.00,weatherlink.com 1.10,2013-02-24 19:28:00,
2013-02-24 11:43:00,44.6,38.0,30.14,SSE,168,14.0,26.0,79,0.00,,,0.00,weatherlink.com 1.10,2013-02-24 19:43:00,
2013-02-24 11:58:00,44.7,39.0,30.14,South,175,19.0,25.0,79,0.00,,,0.00,weatherlink.com 1.10,2013-02-24 19:58:00,
2013-02-24 12:13:00,44.5,39.0,30.13,SSE,167,19.0,30.0,80,0.00,,,0.00,weatherlink.com 1.10,2013-02-24 20:13:00,
2013-02-24 12:28:00,45.1,39.0,30.12,SSE,157,28.0,30.0,79,0.00,,,0.00,weatherlink.com 1.10,2013-02-24 20:28:00,
2013-02-24 12:43:00,45.4,39.0,30.12,SSE,164,24.0,32.0,77,0.00,,,0.00,weatherlink.com 1.10,2013-02-24 20:43:00,
2013-02-24 12:58:00,45.5,39.0,30.11,SSE,165,21.0,31.0,78,0.00,,,0.00,weatherlink.com 1.10,2013-02-24 20:58:00,
2013-02-24 13:13:00,45.7,39.0,30.10,SSE,165,23.0,32.0,76,0.00,,,0.00,weatherlink.com 1.10,2013-02-24 21:13:00,
2013-02-24 13:28:00,45.6,39.0,30.10,South,169,26.0,29.0,77,0.00,,,0.00,weatherlink.com 1.10,2013-02-24 21:28:00,
2013-02-24 13:44:00,45.5,39.0,30.10,SSE,166,19.0,32.0,78,0.00,,,0.00,weatherlink.com 1.10,2013-02-24 21:44:00,
2013-02-24 13:59:00,45.5,39.0,30.09,SSE,159,28.0,29.0,77,0.00,,,0.00,weatherlink.com 1.10,2013-02-24 21:59:00,
2013-02-24 14:14:00,45.6,39.0,30.08,SSE,167,19.0,25.0,77,0.00,,,0.00,weatherlink.com 1.10,2013-02-24 22:14:00,
2013-02-24 14:29:00,45.7,39.0,30.07,SSE,164,27.0,27.0,77,0.00,,,0.00,weatherlink.com 1.10,2013-02-24 22:29:00,
2013-02-24 14:44:00,45.8,39.0,30.06,SSE,159,24.0,29.0,76,0.00,,,0.00,weatherlink.com 1.10,2013-02-24 22:44:00,
2013-02-24 14:59:00,45.8,39.0,30.06,SE,143,19.0,29.0,76,0.00,,,0.00,weatherlink.com 1.10,2013-02-24 22:59:00,
2013-02-24 15:14:00,45.9,39.0,30.05,SSE,160,23.0,29.0,76,0.00,,,0.00,weatherlink.com 1.10,2013-02-24 23:14:00,
2013-02-24 15:29:00,46.0,39.0,30.05,SSE,153,25.0,28.0,76,0.00,,,0.00,weatherlink.com 1.10,2013-02-24 23:29:00,
2013-02-24 15:44:00,45.8,39.0,30.03,SSE,153,25.0,30.0,77,0.00,,,0.00,weatherlink.com 1.10,2013-02-24 23:44:00,
2013-02-24 15:59:00,45.9,39.0,30.02,SSE,162,23.0,33.0,76,0.00,,,0.00,weatherlink.com 1.10,2013-02-24 23:59:00,
2013-02-24 16:14:00,46.1,39.0,30.02,SSE,167,28.0,32.0,76,0.00,,,0.00,weatherlink.com 1.10,2013-02-25 00:14:00,
2013-02-24 16:29:00,46.0,39.0,30.02,SSE,161,22.0,31.0,76,0.00,,,0.00,weatherlink.com 1.10,2013-02-25 00:29:00,
2013-02-24 16:44:00,46.2,38.0,30.00,SSE,168,29.0,33.0,74,0.00,,,0.00,weatherlink.com 1.10,2013-02-25 00:44:00,
2013-02-24 16:59:00,45.9,39.0,29.99,SSE,165,28.0,33.0,76,0.00,,,0.00,weatherlink.com 1.10,2013-02-25 00:59:00,
2013-02-24 17:14:00,46.0,39.0,29.98,SSE,163,26.0,38.0,75,0.00,,,0.00,weatherlink.com 1.10,2013-02-25 01:14:00,
2013-02-24 17:29:00,46.0,39.0,29.97,SSE,157,25.0,36.0,75,0.00,,,0.00,weatherlink.com 1.10,2013-02-25 01:29:00,
2013-02-24 17:44:00,46.1,38.0,29.96,SSE,160,30.0,38.0,74,0.00,,,0.00,weatherlink.com 1.10,2013-02-25 01:44:00,
2013-02-24 17:59:00,45.8,39.0,29.95,SSE,151,39.0,39.0,77,0.00,,,0.00,weatherlink.com 1.10,2013-02-25 01:59:00,
2013-02-24 18:14:00,45.9,39.0,29.95,SSE,149,33.0,40.0,76,0.00,,,0.00,weatherlink.com 1.10,2013-02-25 02:14:00,
2013-02-24 18:29:00,45.7,39.0,29.94,SSE,159,28.0,37.0,76,0.00,,,0.00,weatherlink.com 1.10,2013-02-25 02:29:00,
2013-02-24 18:44:00,45.6,38.0,29.93,SSE,147,23.0,34.0,76,0.00,,,0.00,weatherlink.com 1.10,2013-02-25 02:44:00,
2013-02-24 18:59:00,45.6,38.0,29.92,SSE,150,27.0,34.0,76,0.00,,,0.00,weatherlink.com 1.10,2013-02-25 02:59:00,
2013-02-24 19:14:00,45.5,39.0,29.90,SSE,157,33.0,35.0,77,0.00,,,0.00,weatherlink.com 1.10,2013-02-25 03:14:00,
2013-02-24 19:29:00,45.8,39.0,29.90,SSE,153,29.0,38.0,76,0.00,,,0.00,weatherlink.com 1.10,2013-02-25 03:29:00,
2013-02-24 19:44:00,46.0,39.0,29.90,South,175,25.0,37.0,76,0.00,,,0.00,weatherlink.com 1.10,2013-02-25 03:44:00,
2013-02-24 19:59:00,46.0,38.0,29.88,SSE,156,29.0,40.0,74,0.00,,,0.00,weatherlink.com 1.10,2013-02-25 03:59:00,
2013-02-24 20:14:00,46.1,38.0,29.87,SSE,150,29.0,38.0,74,0.00,,,0.00,weatherlink.com 1.10,2013-02-25 04:14:00,
2013-02-24 20:29:00,46.2,38.0,29.85,SE,146,25.0,37.0,74,0.00,,,0.00,weatherlink.com 1.10,2013-02-25 04:29:00,
2013-02-24 20:44:00,46.3,38.0,29.84,SSE,157,25.0,33.0,74,0.00,,,0.00,weatherlink.com 1.10,2013-02-25 04:44:00,
2013-02-24 20:59:00,46.1,39.0,29.84,SSE,163,33.0,43.0,75,0.00,,,0.00,weatherlink.com 1.10,2013-02-25 04:59:00,
2013-02-24 21:14:00,46.1,39.0,29.82,South,180,30.0,51.0,75,0.00,,,0.00,weatherlink.com 1.10,2013-02-25 05:14:00,
2013-02-24 21:29:00,46.0,38.0,29.81,SSE,164,38.0,52.0,74,0.00,,,0.00,weatherlink.com 1.10,2013-02-25 05:29:00,
2013-02-24 21:44:00,45.9,38.0,29.81,South,184,32.0,43.0,74,0.00,,,0.00,weatherlink.com 1.10,2013-02-25 05:44:00,
2013-02-24 21:59:00,46.2,38.0,29.81,SSE,159,38.0,38.0,72,0.00,,,0.00,weatherlink.com 1.10,2013-02-25 05:59:00,
2013-02-24 22:14:00,46.1,38.0,29.80,South,173,33.0,41.0,73,0.00,,,0.00,weatherlink.com 1.10,2013-02-25 06:14:00,
2013-02-24 22:29:00,46.2,38.0,29.79,South,169,28.0,46.0,72,0.00,,,0.00,weatherlink.com 1.10,2013-02-25 06:29:00,
2013-02-24 22:45:00,45.9,38.0,29.78,SSE,157,39.0,47.0,74,0.00,,,0.00,weatherlink.com 1.10,2013-02-25 06:45:00,
2013-02-24 23:00:00,45.7,38.0,29.77,SSE,161,30.0,41.0,74,0.00,,,0.00,weatherlink.com 1.10,2013-02-25 07:00:00,
2013-02-24 23:27:00,-999.0,-99.9,29.75,North,-999,-999.0,-999.0,-999,0.00,,,0.00,weatherlink.com 1.10,2013-02-25 07:27:00,
2013-02-24 23:42:00,44.9,38.0,29.75,SSE,164,34.0,46.0,78,0.00,,,0.00,weatherlink.com 1.10,2013-02-25 07:42:00,
2013-02-24 23:57:00,44.7,39.0,29.75,SSE,156,29.0,44.0,79,0.00,,,0.00,weatherlink.com 1.10,2013-02-25 07:57:00,